Home > Weather > Kalamazoo > Past weeks

Flag for U.S.A. Weather for the Past 2 Weeks in Kalamazoo, Michigan, U.S.A.

Now
18 °F

Sunny.


Feels Like: 11 °F
Forecast: 13 / 21 °F
Wind: 5 mph from West

Location: Kalamazoo / Battle Creek International Airport

Current Time: Feb 11, 2016 at 6:39:39 PM

Latest Report: Feb 11, 2016 at 5:53 PM


Visibility: 10 mi

Pressure: 30.29 "Hg

Humidity: 65%

Dew point: 8 °F

Location of KalamazooLocation

Historic Weather in Kalamazoo — Graph

°F

Kalamazoo Temperature Yesterday

Maximum temperature yesterday: 21 °F (at 12:53 AM)
Minimum temperature yesterday: 13 °F (at 9:53 PM)
Average temperature yesterday: 18 °F

High & Low Weather Summary for the Past Weeks

 TemperatureHumidityPressure
High49 °F (Jan 31, 2:53 PM)97% (Feb 3, 3:53 AM)30.37 "Hg (Feb 3, 3:53 AM)
Low13 °F (Feb 10, 9:53 PM)51% (Feb 7, 1:53 PM)29.46 "Hg (Feb 3, 4:03 AM)
Average31 °F75%29.90 "Hg
* Reported Jan 27 4:53 PM — Feb 11 4:04 PM, Kalamazoo, Weather by CustomWeather, © 2016

Note: Actual official high and low records may vary slightly from our data, if they occured in-between our weather recording intervals... More about our weather records

Advertising

Kalamazoo Weather History for the Previous 24 Hours

 ConditionsComfort  
Time TempWeatherWind HumidityBarometerVisibility
4:04 PM
Thu, Feb 11
20 °FLight snow. Cloudy.12 mph68%30.23 "Hg1 mi
3:53 PM20 °FLight snow. Mostly cloudy.10 mph65%30.27 "Hg3 mi
2:53 PM20 °FLight snow. Mostly cloudy.9 mph68%30.28 "Hg3 mi
1:53 PM20 °FLight snow. More clouds than sun.7 mph57%30.28 "Hg6 mi
12:53 PM19 °FPartly sunny.7 mph54%30.28 "Hg10 mi
11:53 AM18 °FCloudy.6 mph62%30.29 "Hg10 mi
10:53 AM17 °FOvercast.6 mph64%30.29 "Hg10 mi
9:53 AM15 °FOvercast.3 mph70%30.26 "Hg10 mi
8:53 AM14 °FOvercast.5 mph73%30.25 "Hg9 mi
7:53 AM14 °FLight snow. Overcast.6 mph73%30.23 "Hg7 mi
6:53 AM14 °FOvercast.6 mph71%30.21 "Hg10 mi
5:53 AM14 °FOvercast.7 mph73%30.19 "Hg10 mi
4:53 AM14 °FMostly cloudy.6 mph77%30.16 "Hg10 mi
3:53 AM14 °FLight snow. Overcast.6 mph80%30.14 "Hg4 mi
2:53 AM13 °FMostly cloudy.5 mph81%30.13 "Hg10 mi
1:53 AM13 °FMostly cloudy.6 mph77%30.13 "Hg10 mi
12:53 AM14 °FOvercast.5 mph71%30.12 "Hg10 mi
11:53 PM
Wed, Feb 10
14 °FMostly cloudy.7 mph71%30.12 "Hg10 mi
10:53 PM13 °FOvercast.5 mph70%30.11 "Hg10 mi
9:53 PM13 °FPassing clouds.6 mph67%30.10 "Hg10 mi
8:53 PM15 °FOvercast.10 mph64%30.09 "Hg10 mi
7:53 PM15 °FOvercast.12 mph67%30.07 "Hg10 mi
6:53 PM16 °FOvercast.16 mph65%30.04 "Hg10 mi
Weather by CustomWeather, © 2016

See weather overviewHow to use our weather pages